Content
SEND FEEDBACK

Daily
Averages
Monthly
Summary
Japan

CHITOSE, JAPAN


Home > Asia > Japan
Elevation: 83 feet     Latitude: 42 47N     Longitude: 141 40E

WEATHER
 
SELECT A DAY
Number of Records: 351,504;   Date Range: 7/1/96 - 7/9/14
 
SHARE

PRINT THIS DATA

[ ← Previous Day ]
WEATHER ALMANAC - JANUARY 31, 2013
[ Next Day → ]
[ °C ]   °F
Weather ElementAverageHighLow
Temperature26.4 °F35.6 °F (1:00 pm)17.6 °F (2:30 am)
Dewpoint21.1 °F24.8 °F (2:00 pm)15.8 °F (2:30 am)
Humidity81.9 %100 % (4:00 am)60 % (12:00 pm)
Barometer30.46 in30.48 in (7:00 am)30.39 in (12:30 am)
Wind Speed5.2 mph11.5 mph (1:00 am)
Weather ElementAverage
Visibility6.2 mi
Wind DirectionW (267.9 °)

Weather ElementTotal
Precipitation---
Heating Degree Days38.4 (Base 65)
Averaged from 47 records on January 31, 2013
WEATHER CONDITIONS BREAKOUT
WIND DIRECTION BREAKOUT
WEATHER BY HOUR - JANUARY 31, 2013
[ °C ]   °F
Local TimeTemperatureDewpointHumidityBarometerVisibilityWind DirectionWind SpeedGust SpeedPrecipitationEventsConditions
12:30 AM23.0 °F19.4 °F86 %30.39 in6.2 miNNW (340°)10.4 mphMostly Cloudy
1:00 AM23.0 °F19.4 °F86 %30.42 in6.2 miNNW (340°)11.5 mphMostly Cloudy
1:30 AM21.2 °F19.4 °F93 %30.42 in6.2 miNNW (340°)10.4 mphMostly Cloudy
2:00 AM21.2 °F19.4 °F93 %30.42 in6.2 miNorth (350°)10.4 mphMostly Cloudy
2:30 AM17.6 °F15.8 °F93 %30.42 in6.2 miNorth (360°)9.2 mphScattered Clouds
3:00 AM19.4 °F17.6 °F93 %30.42 in6.2 miNorth (350°)9.2 mphMostly Cloudy
3:30 AM19.4 °F17.6 °F93 %30.42 in6.2 miNorth (10°)6.9 mphPartly Cloudy
4:00 AM17.6 °F17.6 °F100 %30.45 in6.2 miNorth (350°)4.6 mphPartly Cloudy
4:30 AM17.6 °F17.6 °F100 %30.45 in6.2 miNorth (350°)8.1 mphMostly Cloudy
5:00 AM17.6 °F15.8 °F93 %30.45 in6.2 miWNW (290°)4.6 mphMostly Cloudy
5:30 AM21.2 °F19.4 °F93 %30.45 in6.2 miNNW (330°)6.9 mphMostly Cloudy
6:00 AM21.2 °F19.4 °F93 %30.45 in6.2 miNW (320°)3.5 mphMostly Cloudy
6:30 AM21.2 °F19.4 °F93 %30.45 in6.2 miNNW (330°)2.3 mphMostly Cloudy
7:00 AM21.2 °F19.4 °F93 %30.48 in6.2 miNW (320°)4.6 mphMostly Cloudy
7:30 AM23.0 °F21.2 °F93 %30.48 in6.2 miNW (320°)6.9 mphMostly Cloudy
8:00 AM26.6 °F23.0 °F86 %30.48 in6.2 miNNW (340°)5.8 mphMostly Cloudy
8:30 AM24.8 °F21.2 °F86 %30.48 in6.2 miNNE (30°)5.8 mphMostly Cloudy
9:00 AM24.8 °F19.4 °F80 %30.48 in6.2 miNorth (350°)5.8 mphScattered Clouds
9:30 AM26.6 °F21.2 °F80 %30.48 in6.2 miNNW (340°)4.6 mphPartly Cloudy
10:00 AM30.2 °F23.0 °F75 %30.48 in6.2 miNNW (330°)6.9 mphPartly Cloudy
10:30 AM32.0 °F21.2 °F64 %30.48 in6.2 miNW (320°)6.9 mphPartly Cloudy
11:00 AM32.0 °F21.2 °F64 %30.48 in6.2 miNW (320°)4.6 mphScattered Clouds
11:30 AM33.8 °F23.0 °F65 %30.48 in6.2 miNW (320°)3.5 mphMostly Cloudy
12:00 PM33.8 °F21.2 °F60 %30.45 in6.2 miNW (320°)3.5 mphScattered Clouds
12:30 PM33.8 °F23.0 °F65 %30.45 in6.2 miNNW (330°)3.5 mphScattered Clouds
1:00 PM35.6 °F23.0 °F60 %30.45 in6.2 miNorth (10°)3.5 mphMostly Cloudy
1:30 PM35.6 °F23.0 °F60 %30.45 in6.2 miNNW (340°)6.9 mphMostly Cloudy
2:00 PM35.6 °F24.8 °F65 %30.45 in6.2 miNNE (20°)8.1 mphMostly Cloudy
2:30 PM35.6 °F24.8 °F65 %30.45 in6.2 miNNW (340°)5.8 mphMostly Cloudy
3:00 PM35.6 °F24.8 °F65 %30.45 in6.2 miNNW (340°)5.8 mphMostly Cloudy
3:30 PM33.8 °F24.8 °F70 %30.45 in6.2 miNorth (350°)6.9 mphMostly Cloudy
4:00 PM33.8 °F24.8 °F70 %30.45 in6.2 miNorth (10°)4.6 mphMostly Cloudy
4:30 PM32.0 °F24.8 °F75 %30.45 in6.2 miNorth (350°)5.8 mphMostly Cloudy
5:00 PM33.8 °F24.8 °F70 %30.45 in6.2 miNNW (330°)4.6 mphMostly Cloudy
5:30 PM30.2 °F23.0 °F75 %30.45 in6.2 miNNW (340°)3.5 mphScattered Clouds
6:00 PM30.2 °F24.8 °F80 %30.48 in6.2 miNNW (340°)1.2 mphScattered Clouds
6:30 PM30.2 °F23.0 °F75 %30.48 in6.2 miNorth (350°)3.5 mphMostly Cloudy
7:00 PM28.4 °F23.0 °F80 %30.48 in6.2 miNNW (340°)2.3 mphScattered Clouds
7:30 PM30.2 °F24.8 °F80 %30.48 in6.2 miWest (260°)3.5 mphMostly Cloudy
8:00 PM26.6 °F24.8 °F93 %30.48 in6.2 miWest (270°)3.5 mphPartly Cloudy
8:30 PM26.6 °F23.0 °F86 %30.48 in6.2 miVariable1.2 mphPartly Cloudy
9:00 PM23.0 °F21.2 °F93 %30.48 in6.2 miWNW (300°)3.5 mphPartly Cloudy
9:30 PM23.0 °F21.2 °F93 %30.48 in6.2 miVariable2.3 mphPartly Cloudy
10:00 PM23.0 °F21.2 °F93 %30.48 in6.2 miNNE (30°)1.2 mphPartly Cloudy
10:30 PM17.6 °F15.8 °F93 %30.48 in6.2 miVariable1.2 mphPartly Cloudy
11:00 PM17.6 °F15.8 °F93 %30.48 in6.2 miWest (260°)1.2 mphPartly Cloudy
11:30 PM17.6 °F15.8 °F93 %30.48 in6.2 miNW (310°)3.5 mphPartly Cloudy
Hourly data recorded from RJCC, located miles away from Chitose, Japan







STORIES FROM OUR PARTNERS